Theta_e
320 319 320 319 319 318 316 317 320 321 321 322 322 322 322 323 323 323 323 318 317 319 316 319 323 323 322 323 322 322 318 305 307 306 305 306 321 326 324 324 323 322 324 312 310 305 302 304 303 305 302 302 303 301 305 308 308 315 302 299 296 297 296 300 297 298 301 298 300 301 301 300 297 300 303 307 304 304 303 302 304 307 306 310 312 312 314 313
320 320 320 320 321 321 320 318 320 321 321 321 321 322 322 322 323 322 323 322 322 321 320 320 321 323 322 321 321 322 316 308 306 306 305 319 325 325 325 324 324 325 322 310 307 304 301 301 303 304 300 298 305 300 308 303 308 302 300 298 293 297 298 302 300 300 299 296 299 301 301 298 296 298 300 297 297 298 297 299 300 299 301 307 310 311 311 311
320 320 320 320 320 320 320 320 320 321 321 321 321 321 322 322 323 323 322 322 322 321 322 323 323 322 321 321 321 321 314 305 303 301 304 322 324 325 325 323 325 325 312 305 305 304 301 301 302 303 300 297 301 299 303 300 304 303 298 293 294 299 299 300 300 299 300 301 300 299 299 296 297 297 300 296 295 297 295 295 296 297 298 300 301 310 310 310
320 320 319 319 320 320 320 320 320 320 321 321 321 321 322 322 322 323 323 322 323 322 321 322 323 322 322 322 321 316 310 304 297 301 307 325 325 327 325 325 325 323 313 309 307 303 304 303 301 301 299 297 298 300 298 301 299 301 298 294 296 299 297 299 299 299 301 301 299 299 298 295 297 298 297 296 293 294 295 298 297 297 298 299 300 301 302 309
319 319 319 319 319 320 320 320 320 320 321 321 321 321 321 321 322 322 322 322 321 322 322 321 321 321 321 322 318 312 305 295 296 305 311 324 325 324 324 325 324 318 312 310 305 304 303 301 300 300 298 294 297 298 297 299 301 299 295 297 297 297 294 298 299 299 298 298 298 297 295 294 298 297 296 295 291 291 294 298 299 299 299 299 299 300 301 301
319 319 319 319 319 320 320 319 319 320 320 321 321 321 321 321 321 321 322 322 321 322 321 322 322 321 322 320 312 310 301 287 304 305 324 325 324 324 323 322 323 319 312 308 303 303 301 301 299 296 296 295 294 293 297 299 301 292 297 297 297 297 294 297 298 298 297 296 295 294 296 296 295 294 296 295 293 295 299 299 299 299 299 299 299 299 300 300
319 319 319 319 319 319 319 319 319 319 320 320 321 321 321 320 321 321 321 321 321 321 322 322 323 323 320 315 314 305 299 299 303 307 320 326 319 322 322 321 320 311 310 304 302 300 301 299 299 296 295 295 295 295 297 297 299 296 292 295 295 297 295 297 297 296 296 295 294 296 297 293 293 290 295 293 295 297 298 299 299 299 299 301 298 298 301 300
319 319 318 319 318 318 318 319 319 319 319 319 320 320 320 320 320 320 320 320 320 321 321 322 321 320 320 311 305 299 298 297 305 310 319 323 320 318 318 311 310 309 305 302 301 300 300 296 296 298 294 293 295 295 297 295 296 293 292 294 295 296 297 297 295 295 295 296 296 295 293 293 293 293 294 293 295 297 297 298 298 298 297 297 297 297 298 299
319 318 318 318 317 318 318 318 318 318 318 318 319 319 320 320 319 320 319 320 320 320 321 321 320 320 319 310 305 298 296 301 306 307 311 313 313 312 311 306 307 304 303 303 303 301 299 297 298 297 292 293 296 293 298 293 291 298 294 295 295 295 296 296 295 295 294 295 295 293 292 294 294 295 292 294 295 297 298 297 297 297 297 297 296 298 296 296
318 318 318 317 317 317 318 318 318 318 317 317 318 319 320 320 319 319 319 319 320 320 320 320 320 319 309 301 301 293 298 305 306 306 305 305 307 306 305 304 305 303 302 302 302 301 299 298 297 299 297 294 296 295 297 295 292 297 295 294 293 293 294 295 293 294 294 294 295 292 291 292 294 293 288 295 296 297 296 296 297 296 295 296 296 297 295 292
318 317 317 317 317 318 318 318 317 317 317 317 318 319 319 320 319 319 319 319 319 320 320 320 321 311 303 301 296 293 302 305 307 304 304 305 306 303 303 304 304 302 302 302 301 302 301 300 301 299 300 295 296 295 295 298 298 296 295 293 293 293 294 294 294 294 294 293 295 293 291 292 293 292 289 294 296 297 295 295 295 295 294 293 293 292 292 291
317 317 317 317 317 318 317 317 318 317 317 318 318 318 319 319 318 318 319 319 319 320 320 320 320 312 304 301 297 297 304 305 313 305 304 304 302 303 302 303 303 302 302 299 301 303 302 301 300 305 292 298 292 295 295 296 296 294 293 288 290 292 292 294 293 294 295 293 294 293 289 289 289 288 293 295 296 296 295 294 292 291 291 291 291 291 290 290
317 317 317 317 317 318 317 318 318 318 318 318 319 319 319 318 318 318 318 319 319 319 320 320 320 312 306 298 298 303 307 307 310 305 304 308 304 305 304 304 303 303 302 301 300 302 305 303 300 296 300 297 295 290 299 298 295 295 293 290 289 290 290 295 295 294 292 293 293 292 279 286 289 291 294 296 295 295 292 289 290 290 290 289 290 289 289 289
316 316 317 317 317 318 317 318 318 318 318 319 318 318 318 318 318 319 318 320 320 320 319 318 317 308 301 298 300 304 309 310 305 304 303 305 303 302 303 303 303 303 308 301 302 304 302 301 300 298 307 295 295 301 294 293 294 288 292 294 286 285 286 293 293 292 290 293 293 292 281 284 291 293 295 295 296 291 288 288 288 289 288 288 288 288 288 288
316 316 317 317 317 318 318 318 318 318 318 318 318 318 318 318 318 318 320 317 320 320 318 312 309 305 299 300 303 304 315 307 303 302 303 302 301 301 301 302 302 302 302 302 302 303 303 301 300 296 294 303 301 296 291 291 292 292 289 284 289 283 288 291 294 291 289 291 293 293 282 286 289 291 292 293 291 290 287 287 287 287 288 288 288 287 287 287
316 317 317 316 317 317 317 318 318 318 318 318 318 318 318 319 319 319 320 322 319 320 316 308 309 303 299 296 301 312 304 300 300 302 303 302 301 298 301 300 301 301 301 301 302 302 301 301 295 300 297 296 293 290 289 289 289 291 286 283 283 284 286 291 291 293 294 292 292 290 285 287 288 291 290 291 290 289 287 286 287 286 287 287 287 287 287 287
316 316 317 316 317 316 317 317 318 318 318 318 318 318 318 319 320 320 320 318 315 316 310 306 307 304 294 299 303 299 299 300 302 302 301 305 300 300 299 299 299 299 301 302 301 300 300 296 300 297 299 290 292 292 285 283 282 286 289 283 288 283 285 283 290 291 294 291 288 289 285 286 289 290 289 289 289 288 286 285 286 286 286 286 286 286 286 286
316 316 316 316 317 317 317 317 317 318 318 318 319 319 317 319 320 318 314 318 316 311 312 310 306 302 298 300 294 296 301 300 300 300 300 301 301 300 299 297 299 298 299 297 299 295 298 293 296 291 291 291 291 290 283 279 283 282 283 283 284 286 286 285 285 291 290 291 289 288 287 287 289 288 287 288 288 287 285 285 285 285 285 285 285 285 285 285
316 316 315 316 317 317 317 317 317 318 319 319 319 319 319 318 315 317 307 306 306 303 298 300 300 292 290 295 300 300 300 299 302 299 298 299 300 300 299 300 298 296 294 293 293 294 296 295 298 292 287 288 288 290 285 287 289 287 287 284 285 282 283 284 290 292 292 288 288 287 285 287 288 285 286 286 287 285 285 285 285 285 285 284 284 285 285 284
316 315 316 315 317 317 318 318 318 318 317 314 312 314 310 305 305 302 308 305 300 300 299 301 300 300 299 298 297 300 301 301 297 298 300 301 298 298 297 297 296 295 293 290 293 293 301 289 284 285 289 291 292 292 291 290 289 288 287 285 284 284 285 289 290 291 293 289 286 287 287 286 287 284 285 285 285 284 284 283 283 283 283 284 283 284 284 284
316 316 316 315 315 316 317 318 318 318 318 321 314 310 302 302 298 297 303 303 303 302 299 300 299 296 295 298 299 297 295 296 298 297 298 303 298 295 293 294 292 289 291 294 295 300 298 287 285 289 291 291 291 290 290 289 289 288 286 284 283 286 283 289 289 291 293 287 283 286 286 286 285 284 284 285 283 282 282 282 282 283 283 283 283 283 284 284
316 316 316 316 316 316 317 318 318 318 318 316 314 309 307 310 310 313 305 296 300 303 301 299 299 298 299 298 298 298 297 293 295 296 299 299 297 292 293 292 291 289 295 297 295 291 289 284 289 291 290 291 290 290 290 289 287 287 283 282 282 284 288 291 288 290 291 288 284 285 283 284 283 284 284 283 282 283 283 283 283 283 283 283 283 283 284 284
315 315 316 316 316 316 316 318 317 314 315 313 312 310 310 313 313 315 309 301 300 306 304 303 297 297 296 298 298 300 293 293 291 294 296 299 296 294 294 290 290 291 292 293 289 286 284 289 290 291 290 289 289 289 291 289 289 284 283 282 281 285 283 279 288 289 291 286 283 285 280 284 283 284 283 283 283 283 284 284 284 284 282 283 283 283 283 283
315 315 315 315 316 316 317 317 316 313 309 310 310 312 313 315 312 314 307 299 297 300 301 299 298 297 295 294 298 297 294 293 294 292 299 297 292 297 293 293 290 290 288 292 290 288 286 290 291 292 292 289 288 288 287 285 283 286 287 284 283 284 284 282 282 286 287 287 288 284 281 281 281 279 280 283 284 284 284 284 284 284 284 284 284 284 284 283
315 315 314 315 315 317 316 317 309 309 317 314 310 313 313 314 314 313 304 302 298 297 303 306 300 297 297 302 299 295 296 296 294 296 297 297 293 293 295 296 292 289 291 291 291 289 288 289 288 290 289 290 288 285 287 286 281 281 285 284 284 283 282 283 284 283 280 279 286 285 275 276 278 280 280 281 282 282 283 282 282 282 282 282 282 282 283 283
314 314 315 315 316 316 316 308 310 312 311 308 312 312 314 313 315 313 304 294 287 294 299 294 299 293 300 296 299 299 297 292 294 295 297 296 298 293 294 291 294 287 291 291 290 288 290 290 289 289 288 288 288 286 288 286 280 279 281 284 284 283 283 283 282 281 276 274 282 284 275 272 278 279 280 281 280 280 282 281 281 282 281 281 281 281 281 281
314 313 315 314 316 316 305 302 312 318 304 310 313 313 313 314 316 317 300 288 285 295 294 297 297 297 304 298 297 301 287 290 296 298 296 297 294 303 289 294 295 296 295 294 287 284 293 288 287 289 287 285 284 282 286 286 280 279 283 284 283 283 282 282 282 280 278 283 284 284 280 274 274 278 281 281 280 279 279 280 280 281 281 281 281 281 281 281
315 314 314 315 316 315 313 307 312 309 310 312 314 313 313 312 315 314 296 280 278 300 293 299 297 305 298 300 299 294 292 297 290 293 296 298 297 296 291 291 290 290 293 290 279 289 289 288 287 286 284 283 282 285 286 287 282 282 284 286 283 283 283 283 280 279 279 278 276 278 283 276 274 277 280 281 277 277 278 278 279 280 280 280 280 281 281 281
314 314 315 315 315 315 313 310 311 312 311 313 312 313 317 316 308 299 288 277 290 296 309 295 304 299 299 301 297 298 298 297 289 298 296 298 297 297 290 295 290 290 293 292 283 287 290 287 287 288 285 282 287 284 284 287 282 287 285 286 285 285 284 283 280 279 278 276 273 278 281 274 274 276 278 277 276 275 276 278 278 279 280 280 280 280 280 281
315 315 314 315 312 308 310 313 314 312 313 313 314 315 312 310 302 290 282 272 296 287 298 298 296 293 298 296 295 295 291 294 298 300 298 295 294 295 296 294 294 291 288 294 289 289 288 293 291 289 286 287 284 285 285 285 285 287 285 283 283 283 282 281 280 277 275 271 275 279 279 277 271 274 274 274 274 274 276 277 278 279 279 280 280 280 280 280
313 313 312 312 312 313 315 307 312 313 313 313 313 310 310 303 291 284 275 284 298 295 300 298 294 300 293 290 289 293 297 295 294 296 296 299 294 293 294 291 295 288 284 287 285 290 290 290 288 286 291 289 287 285 287 286 286 284 281 280 280 278 279 278 277 277 271 269 276 275 278 280 268 272 274 276 277 276 275 275 277 277 278 279 279 279 280 280
313 313 314 314 313 317 313 310 309 313 313 309 310 308 303 287 288 281 281 300 286 289 290 289 296 293 293 293 290 288 286 294 295 293 288 286 285 285 284 281 283 280 281 279 279 288 284 284 284 289 288 285 286 283 284 284 284 282 280 278 274 271 272 268 273 268 270 270 276 277 279 273 273 273 275 277 277 277 278 278 278 277 277 278 279 279 279 279
311 311 312 312 313 312 310 309 311 312 312 312 307 306 293 285 276 284 283 287 284 291 289 294 292 292 291 292 287 290 293 286 292 293 293 291 286 285 288 286 286 283 275 281 280 280 280 283 287 287 287 289 287 278 277 277 280 280 277 275 272 267 266 264 268 271 271 275 278 277 279 273 273 273 276 276 277 278 279 279 279 278 278 278 278 279 279 279
311 312 310 308 310 309 308 309 309 310 311 310 304 299 290 281 279 285 284 287 288 295 295 293 292 292 292 285 287 289 284 290 290 289 292 286 285 282 283 286 286 283 283 281 278 277 275 277 282 284 280 286 286 282 281 279 279 278 283 278 273 271 268 263 268 265 268 270 275 278 271 269 271 271 276 277 278 278 278 278 278 278 278 278 278 278 278 278
308 312 311 312 314 312 312 310 310 309 310 307 298 291 283 281 283 283 284 286 290 293 292 293 290 290 288 288 290 288 287 284 290 288 284 284 281 281 281 282 286 285 284 278 279 279 280 278 283 285 285 285 285 287 286 283 280 281 281 281 276 273 276 269 271 270 269 270 271 272 271 272 271 276 278 279 279 279 279 278 278 277 277 277 276 277 276 277
313 314 319 312 312 313 315 312 308 309 308 302 293 287 282 282 282 286 287 294 294 288 288 291 291 285 284 285 288 287 291 285 288 286 283 283 284 282 285 284 283 285 280 276 277 275 278 275 282 288 286 281 282 287 286 286 271 278 278 274 275 279 277 272 274 276 275 272 269 273 273 272 276 277 277 279 278 278 278 278 276 276 276 276 276 276 277 276
310 315 307 311 311 314 311 314 310 307 307 300 291 284 286 287 289 290 291 289 290 289 288 282 283 283 282 282 283 284 286 288 285 285 280 285 281 283 284 285 288 284 285 281 278 283 273 276 283 285 282 284 284 283 286 286 284 279 273 276 282 283 280 272 266 269 269 266 267 273 269 269 271 266 277 276 275 276 276 276 276 275 275 274 275 275 276 276
311 310 308 308 311 315 315 311 310 309 304 298 285 287 291 288 293 292 292 292 293 292 287 284 284 287 281 282 281 282 285 282 283 284 282 283 278 287 283 282 288 284 285 286 277 280 281 273 281 283 284 286 285 284 284 285 286 280 276 284 275 269 269 275 270 263 263 263 265 269 271 271 271 270 274 272 273 273 274 275 274 273 273 274 274 274 275 276
312 306 302 308 316 315 316 310 309 307 299 289 286 286 291 290 293 290 291 291 292 288 285 285 284 287 285 282 282 285 284 280 283 281 280 281 278 284 283 285 283 285 286 286 280 281 282 273 277 282 281 285 283 282 274 277 283 283 282 279 283 277 272 268 270 267 268 263 264 265 268 267 272 272 274 272 274 274 274 274 273 273 273 273 275 275 276 276
308 303 299 315 318 316 311 313 307 303 299 287 286 285 293 290 292 293 292 292 289 288 286 286 289 283 285 285 285 280 284 284 282 282 283 283 281 285 282 286 283 284 286 287 282 285 277 281 271 278 283 283 276 278 275 277 273 275 277 275 276 276 278 275 272 269 267 265 266 265 264 269 272 275 274 273 275 274 275 273 273 275 275 276 276 276 276 276
309 303 302 315 316 314 315 312 303 292 288 289 291 291 293 290 294 292 296 294 294 296 289 287 286 283 285 284 282 285 283 282 283 281 282 283 281 277 284 284 286 283 286 285 281 281 276 276 272 276 276 276 277 281 282 280 280 277 275 273 275 271 268 266 265 274 269 267 265 264 262 269 273 277 276 275 276 275 276 276 275 275 275 275 275 276 276 276
302 295 299 315 316 317 309 294 289 294 291 288 287 292 289 294 293 292 293 293 293 289 293 290 289 287 284 285 285 284 283 281 283 282 282 280 283 281 284 289 287 287 281 278 277 283 279 278 275 273 276 277 280 280 284 283 282 279 278 275 276 274 273 268 263 266 268 268 268 268 264 266 272 276 276 275 275 275 276 277 275 275 274 274 275 275 276 276
303 295 308 313 317 313 305 291 291 288 287 289 294 293 295 294 292 290 292 292 291 293 290 288 286 287 287 285 285 284 284 281 283 280 283 283 281 284 287 288 288 286 285 280 283 282 286 274 273 276 278 280 279 282 281 282 282 279 277 277 275 271 272 269 268 268 266 266 265 267 265 267 272 276 275 274 274 274 274 275 273 273 274 274 275 275 275 275
303 301 305 314 318 312 301 288 286 286 287 292 290 288 294 291 291 291 289 289 289 288 288 287 290 289 286 288 285 283 285 278 284 282 281 284 280 289 288 287 288 282 281 277 276 282 273 276 274 270 270 272 275 276 278 279 279 274 273 275 275 274 272 270 270 270 265 269 268 266 261 267 272 274 273 273 273 274 274 274 275 273 274 274 274 274 275 275
302 305 303 306 309 307 296 295 289 287 287 288 289 288 290 289 291 291 290 288 291 287 288 285 288 287 287 287 285 286 285 281 279 283 281 282 281 288 287 287 286 282 285 285 284 282 277 276 274 267 265 264 263 265 267 269 272 274 276 275 275 269 269 267 265 267 263 267 266 264 265 272 272 273 272 272 273 273 274 275 275 275 274 273 274 274 274 275
301 288 298 301 304 301 298 297 295 290 287 286 284 287 288 285 291 292 293 289 290 290 286 288 288 287 285 286 284 283 282 285 282 278 277 278 280 284 286 287 286 283 286 287 283 281 276 277 276 274 270 269 270 272 276 277 274 270 272 272 270 272 271 269 268 266 264 266 264 267 267 266 267 269 270 271 272 272 272 273 273 273 274 274 274 274 274 274
301 292 291 289 297 295 292 295 292 292 287 292 284 287 284 287 288 289 293 285 288 289 288 286 286 284 282 283 282 283 283 282 283 279 275 275 279 282 285 286 285 286 285 283 283 279 276 272 274 274 273 274 275 274 275 276 272 274 272 270 271 270 270 266 265 264 269 265 262 269 268 264 266 268 270 270 272 272 272 272 273 273 273 274 274 274 276 274
295 292 297 294 292 289 288 289 293 291 293 290 286 289 286 285 286 282 289 287 288 285 284 286 285 284 283 282 282 278 279 281 281 276 278 278 280 281 281 283 282 285 283 280 281 275 271 270 275 271 270 273 274 274 275 275 275 274 273 273 269 270 270 265 265 269 269 264 262 267 267 264 266 269 270 271 272 271 272 272 273 273 273 274 274 273 273 273
298 294 294 296 291 288 291 292 295 292 289 288 286 289 285 285 282 284 285 285 287 283 285 279 283 284 283 283 282 278 279 274 276 278 276 275 276 277 278 281 282 282 279 278 278 278 274 272 272 272 271 273 274 275 276 274 273 273 273 273 272 271 269 269 270 271 269 266 268 267 267 266 269 269 271 272 273 273 273 273 273 273 272 273 273 273 273 273
293 295 289 295 292 288 289 290 292 291 287 289 283 285 286 284 283 286 285 284 280 283 286 283 284 285 284 283 282 277 280 281 279 275 280 278 277 279 277 278 277 280 279 277 278 277 274 271 276 271 268 271 274 274 273 274 274 271 273 271 271 271 271 270 268 269 269 267 268 267 266 265 270 272 272 273 274 274 273 272 272 272 272 273 273 273 273 272
300 299 300 291 287 286 289 290 291 289 285 286 284 286 287 285 283 285 283 286 283 282 283 282 284 284 284 283 281 281 283 283 282 282 283 282 276 282 277 277 280 276 278 276 276 274 273 270 272 271 268 269 273 273 273 273 273 272 271 270 270 269 264 267 263 267 265 261 265 265 263 264 270 272 272 273 272 272 271 271 271 272 272 272 272 272 272 272
301 301 301 300 286 287 286 289 289 289 282 284 286 286 286 285 286 287 282 287 286 285 285 284 285 283 284 281 280 281 283 283 285 285 284 284 284 283 282 281 280 277 275 274 275 273 272 270 269 269 267 267 272 273 272 272 271 267 265 269 270 269 268 268 269 269 268 267 263 261 263 269 270 272 270 271 271 271 271 271 271 272 272 272 272 272 272 273
Wind_Speed
4 4 5 4 6 9 4 4 7 8 9 6 6 6 6 7 6 5 5 8 11 5 3 7 6 5 6 6 7 7 7 5 7 7 10 2 2 3 2 2 1 3 2 5 7 6 5 5 6 5 5 5 5 7 5 5 4 1 3 4 6 5 8 6 10 6 8 9 9 11 9 10 10 8 5 2 5 7 7 7 5 8 9 8 8 3 8 9
2 4 5 5 6 8 10 5 7 8 8 9 7 7 6 5 5 4 5 6 5 4 3 5 5 5 6 6 6 6 6 6 8 10 2 2 2 4 4 3 2 2 3 5 5 4 6 5 5 5 6 6 3 5 5 3 5 4 3 4 7 5 6 8 7 8 6 7 9 9 7 8 10 11 5 8 9 10 9 7 8 10 9 9 9 4 11 11
2 3 6 5 5 7 10 8 8 7 7 7 8 7 6 6 6 5 5 4 5 5 4 4 4 4 5 6 6 6 4 7 8 9 4 2 5 5 3 2 3 1 3 6 6 7 7 8 8 4 6 7 4 5 6 4 4 5 4 5 6 6 9 10 9 8 6 9 7 9 8 9 10 8 5 7 8 10 10 8 8 9 5 7 1 5 8 6
4 3 3 5 6 5 7 7 10 8 7 7 8 6 6 6 7 6 5 6 6 5 4 4 3 3 4 5 5 5 5 6 6 4 2 4 6 3 2 2 4 4 6 6 7 7 7 7 7 6 7 6 5 6 4 3 3 1 5 5 5 6 9 9 11 10 6 5 7 8 9 10 6 6 6 6 9 11 6 7 6 9 12 9 11 12 2 8
6 6 6 7 8 8 9 8 7 8 9 7 7 6 6 6 6 6 6 6 5 5 4 4 3 2 3 4 7 4 4 4 2 5 5 4 6 3 2 2 3 5 6 8 7 6 6 6 6 5 5 4 6 4 5 7 7 5 7 8 10 10 10 10 9 6 3 4 7 8 10 9 7 7 6 7 8 11 6 6 9 9 7 9 9 7 6 3
9 8 7 8 9 9 8 9 9 8 9 9 8 7 7 7 7 7 7 6 5 3 4 3 3 3 4 4 4 5 3 1 2 4 3 3 5 1 1 3 4 4 7 8 6 5 5 6 5 5 4 6 6 5 3 4 2 5 4 6 7 7 10 6 7 2 1 6 7 8 7 7 6 10 7 10 13 12 10 9 9 8 7 6 6 4 4 4
9 9 8 7 9 11 10 10 10 10 9 9 8 7 8 8 8 7 7 5 4 3 2 3 3 3 3 4 3 4 6 2 4 3 4 3 2 1 1 4 3 4 6 7 5 4 4 7 5 6 6 5 7 7 8 7 1 5 8 6 10 11 12 8 7 7 6 8 8 5 7 7 7 12 4 10 15 11 11 8 7 7 6 2 3 4 1 3
8 9 9 9 8 9 10 10 10 10 10 9 8 7 8 8 7 6 5 4 3 3 3 3 1 2 3 2 1 3 5 1 5 5 4 4 3 3 2 5 5 5 7 6 6 5 4 6 6 5 5 4 4 5 5 7 6 7 8 8 9 8 7 7 5 5 6 7 6 7 7 8 5 9 8 16 15 10 7 5 3 5 5 4 3 3 3 3
6 7 9 10 10 9 9 10 10 10 10 8 8 8 7 7 7 6 5 4 4 4 4 2 1 2 1 2 4 5 3 5 4 7 7 4 2 3 3 4 6 6 5 3 2 5 5 2 4 3 4 8 5 7 3 4 4 1 6 8 9 9 10 9 10 11 10 8 4 7 8 7 7 9 12 16 15 8 1 4 4 2 1 1 3 3 4 6
6 6 7 8 9 10 10 9 9 9 9 8 8 7 7 7 6 6 6 5 5 4 3 1 1 1 1 3 3 6 2 3 4 3 3 2 1 2 4 7 5 6 6 0 4 5 5 5 6 6 4 7 6 4 3 3 5 8 9 9 11 12 11 10 12 11 8 6 6 8 9 9 5 3 6 3 2 6 5 4 2 3 4 6 7 12 19 22
6 7 7 8 8 9 9 9 8 8 6 6 6 6 7 6 6 6 5 5 3 3 2 1 2 2 3 6 5 3 0 2 2 4 4 0 0 3 4 2 3 6 5 5 5 2 5 5 5 4 3 2 8 5 3 2 3 5 9 10 11 11 12 12 13 12 6 5 0 3 8 8 5 4 12 12 4 4 5 3 5 10 16 18 20 19 15 18
6 7 7 7 8 7 6 7 6 5 4 4 5 6 6 6 5 4 3 2 2 2 2 3 4 2 5 7 8 1 5 3 1 2 2 1 3 2 3 4 4 5 6 7 6 1 2 4 4 2 2 2 3 7 4 7 4 6 6 11 11 10 12 10 11 7 4 3 2 2 8 9 5 6 15 12 3 5 5 11 17 18 15 15 15 16 16 14
5 6 7 7 6 5 5 5 4 2 2 4 5 6 6 6 5 4 4 3 2 2 2 2 2 3 4 6 1 3 1 3 2 1 1 0 2 1 1 1 4 3 4 6 5 4 2 2 4 6 2 3 4 3 2 6 8 9 8 7 11 7 8 6 3 4 4 1 5 3 4 3 3 11 3 6 6 6 15 15 14 13 13 12 14 13 14 16
5 6 6 6 5 4 4 3 1 1 3 4 5 5 5 5 5 5 5 1 6 1 2 1 3 6 5 3 3 2 0 1 2 4 2 3 6 4 4 3 3 4 1 6 4 1 2 1 4 7 2 4 3 5 8 7 6 6 5 3 5 4 3 3 3 4 2 3 5 2 1 4 7 8 3 4 10 16 14 14 13 13 13 13 12 13 13 15
5 6 6 5 4 3 2 1 1 3 4 5 6 6 6 6 5 5 4 4 2 3 3 1 4 4 5 1 3 2 3 2 3 2 4 5 5 4 5 4 4 3 3 4 4 1 2 3 5 5 3 1 3 4 4 5 4 3 2 3 2 4 2 3 4 6 3 1 3 1 1 0 3 10 13 12 14 16 15 13 13 12 12 12 11 12 12 13
4 5 5 5 2 2 2 2 3 4 5 6 6 6 5 5 5 4 1 2 5 2 4 2 4 6 7 3 2 4 2 3 3 5 2 2 4 6 6 6 3 4 4 4 3 2 3 4 5 1 3 4 5 4 5 5 3 4 5 3 4 3 5 1 5 5 2 5 2 4 3 4 2 11 10 11 14 14 14 13 13 13 13 12 11 10 10 11
4 5 5 4 1 2 2 3 4 5 6 6 6 5 5 5 5 4 3 4 3 3 4 2 2 4 4 2 0 3 3 4 3 3 2 1 3 5 6 5 5 4 4 2 5 4 4 4 2 1 2 4 3 3 4 4 2 1 2 3 3 5 3 4 2 4 2 2 2 4 2 3 3 8 10 12 12 14 13 12 13 12 10 11 10 10 10 11
4 4 4 3 1 2 3 4 4 5 6 5 4 5 4 5 3 5 1 3 1 3 2 3 3 1 2 2 1 3 2 5 2 2 3 1 2 4 5 6 3 5 4 5 5 6 5 3 3 2 1 4 4 3 1 3 3 4 2 4 5 5 5 8 9 3 3 1 2 1 5 5 5 10 10 11 13 14 13 11 11 11 11 10 10 10 10 11
3 4 3 3 2 2 3 4 4 5 4 4 6 5 4 2 3 5 2 3 1 2 2 2 2 1 3 3 3 3 2 2 1 3 1 0 2 5 6 6 7 6 4 6 4 7 4 3 2 2 3 3 5 6 6 6 6 7 6 3 4 7 8 6 6 2 2 3 4 5 5 3 2 12 9 11 12 14 12 10 9 10 10 9 9 9 9 9
3 3 3 2 2 2 5 5 5 4 8 5 3 2 2 2 2 2 2 2 3 2 1 2 4 5 6 2 5 5 4 2 3 2 2 0 3 4 6 5 5 5 4 4 5 0 1 2 3 4 4 5 6 6 5 6 7 7 5 5 6 7 10 7 5 4 0 1 4 5 6 4 2 10 10 9 10 12 12 12 10 9 9 9 9 9 9 10
3 3 3 2 1 1 4 5 5 6 6 6 2 2 2 4 4 2 1 2 3 3 3 3 3 4 3 4 3 7 4 3 3 5 3 1 5 4 2 4 4 5 7 5 2 2 2 3 6 7 7 5 6 6 7 8 7 5 5 5 7 5 9 7 1 1 3 0 2 3 6 8 6 8 9 8 13 12 10 11 11 10 9 8 9 9 10 8
3 3 3 2 0 1 3 5 4 3 4 3 3 3 3 3 1 0 1 1 2 3 1 1 1 1 3 1 2 2 3 3 6 5 3 6 2 3 3 4 4 4 4 1 2 1 2 6 6 5 7 6 4 4 3 4 5 5 5 5 5 7 8 1 5 2 2 0 6 5 5 2 9 9 9 10 12 10 10 10 10 9 9 8 9 9 9 9
3 2 2 1 1 0 2 4 3 1 3 2 2 4 2 1 2 2 2 3 1 1 2 1 1 1 4 3 1 3 5 3 3 4 6 7 6 2 4 5 3 4 3 4 2 2 4 0 7 5 6 5 6 5 2 3 3 4 5 3 5 3 4 3 1 2 0 2 6 6 4 2 9 9 10 8 10 10 10 10 10 8 9 10 10 9 9 9
3 1 1 1 1 1 3 4 4 2 2 4 6 3 1 2 4 2 2 1 2 1 2 1 2 2 4 1 2 4 4 5 5 4 6 5 5 2 2 2 4 3 4 3 4 3 5 5 2 2 1 2 4 5 6 2 4 4 3 4 4 4 3 1 6 8 8 9 13 11 4 3 8 8 8 8 7 10 9 9 9 9 8 8 9 9 9 10
2 1 1 2 4 3 4 6 2 3 2 3 2 3 2 3 2 3 1 1 1 2 2 1 3 4 2 0 2 3 5 2 5 3 5 5 6 4 1 2 1 1 4 5 3 3 5 3 3 3 3 2 3 4 5 3 4 4 4 3 3 4 6 6 7 9 6 5 2 2 1 2 7 8 9 8 7 9 6 8 9 9 9 8 9 8 8 10
2 1 3 4 5 6 4 1 2 3 2 1 3 3 3 2 3 2 1 2 1 1 1 1 1 1 1 1 1 2 1 1 3 3 3 3 2 3 3 2 0 2 4 4 2 2 1 2 2 3 3 3 4 3 2 4 5 4 2 4 4 6 5 6 8 4 4 5 1 1 4 4 5 7 10 8 9 10 7 9 9 8 8 8 7 7 8 10
2 3 5 6 8 8 2 1 2 1 2 2 2 3 2 2 2 1 1 1 1 0 1 0 1 1 1 2 2 1 1 1 1 0 3 1 2 1 3 1 1 2 2 1 1 0 0 2 1 0 3 4 4 2 2 4 1 3 0 3 4 5 6 8 5 4 7 5 9 5 5 6 3 7 9 9 10 9 9 9 9 9 9 8 8 8 9 10
1 4 7 8 8 10 3 3 2 2 2 2 2 3 3 2 0 1 1 1 0 2 1 0 1 1 2 2 4 5 2 3 2 2 2 1 1 1 2 3 3 4 2 1 1 1 2 1 4 5 4 2 3 1 3 4 0 3 2 2 6 7 9 8 4 5 5 5 8 5 7 4 3 5 9 9 9 7 8 9 9 9 8 8 8 9 9 10
2 5 6 7 4 6 4 3 4 1 2 3 3 2 1 1 1 1 1 0 0 1 2 2 0 2 2 2 1 3 1 3 3 1 3 0 1 1 1 3 4 3 2 2 2 1 3 3 2 1 0 2 1 2 1 3 2 1 3 5 8 8 8 7 4 3 5 3 7 9 5 4 1 7 6 4 9 6 4 7 8 7 8 8 8 9 10 8
5 6 7 8 6 0 3 3 1 1 2 2 2 1 0 2 1 1 1 1 0 1 2 1 1 5 5 1 2 4 4 2 2 0 3 2 1 3 1 3 1 2 2 1 4 3 2 1 1 2 1 2 2 1 1 2 4 5 7 6 7 5 7 4 4 2 2 1 7 5 4 2 2 4 6 4 4 2 4 5 6 7 8 9 9 9 9 9
6 5 5 3 2 1 2 2 4 3 2 1 2 1 1 1 1 2 1 0 1 2 2 1 2 2 4 5 1 5 2 2 3 4 2 0 3 8 4 1 1 1 2 1 3 2 3 1 0 1 2 3 2 3 3 1 1 2 3 3 6 6 3 1 2 3 0 4 2 3 4 4 1 2 6 5 3 5 4 5 8 9 9 7 7 7 7 7
7 7 2 1 1 2 2 1 2 2 2 2 1 1 1 2 2 1 2 1 1 3 2 2 1 2 2 0 2 4 2 1 1 3 3 3 6 10 10 6 6 6 1 4 4 4 1 2 0 1 2 2 2 2 0 1 1 2 4 3 5 5 4 3 2 2 2 3 2 3 6 4 1 2 4 6 6 7 7 7 8 6 6 6 6 6 6 4
6 8 8 5 3 2 3 1 1 1 1 2 0 2 2 2 1 2 1 2 0 1 1 3 3 4 2 1 3 3 2 3 3 1 1 2 7 7 10 10 8 3 2 3 4 4 0 2 1 1 3 1 2 4 5 4 2 6 4 4 4 3 2 3 3 3 4 5 6 14 14 9 6 4 7 7 8 7 7 7 6 6 6 6 5 4 4 3
3 6 3 2 4 3 2 1 1 2 1 0 1 2 1 1 1 2 0 3 1 2 4 1 3 2 2 2 0 3 0 2 1 2 1 3 5 3 4 8 10 8 2 4 1 3 2 1 0 1 0 1 1 3 1 4 4 3 1 2 1 2 1 3 4 4 7 8 11 10 5 2 3 2 4 7 6 5 6 5 4 4 4 3 3 3 2 2
8 4 4 2 2 2 2 3 1 1 1 1 2 1 1 2 2 2 1 3 2 3 1 1 1 1 1 1 2 1 2 0 2 3 7 4 4 3 3 5 7 4 3 2 2 2 3 3 1 2 0 2 2 1 1 2 3 2 3 3 1 0 3 3 3 6 6 9 9 5 2 4 5 5 7 7 5 8 5 5 6 5 5 5 4 5 4 2
5 2 3 2 2 1 1 2 1 1 1 3 2 0 2 1 1 2 1 2 2 2 5 6 2 2 1 3 1 4 2 1 2 1 2 4 3 4 3 2 4 7 4 2 3 2 3 2 2 3 0 0 1 0 0 1 1 5 4 2 2 4 3 3 6 8 7 5 8 3 2 6 3 5 4 4 8 8 7 6 5 5 4 6 4 5 5 5
2 2 1 1 2 2 1 1 1 1 2 3 2 2 1 2 1 2 3 3 2 2 3 1 2 3 3 2 2 5 3 1 1 1 2 3 3 4 3 1 6 5 5 1 4 3 1 8 9 3 2 1 1 1 0 2 1 1 1 2 5 4 4 1 3 3 4 7 7 6 9 3 5 2 4 6 8 8 8 5 6 5 4 6 4 4 6 5
1 1 2 2 1 1 1 2 2 3 2 1 3 4 2 2 2 3 2 3 1 1 2 3 1 3 3 3 3 4 7 2 7 5 3 2 1 3 2 3 4 7 5 4 1 3 4 4 1 1 1 2 2 2 1 1 1 0 3 3 1 3 4 5 2 5 6 6 8 5 11 7 3 2 5 9 8 10 9 6 5 5 3 5 3 4 5 5
1 1 1 2 1 1 1 2 2 2 2 1 2 2 2 3 2 2 3 2 2 2 1 1 1 1 1 2 2 1 5 3 4 3 2 2 1 4 3 3 3 7 6 6 3 3 3 1 1 0 0 1 1 1 1 1 1 1 3 2 0 2 1 1 1 3 3 11 6 8 5 4 5 3 5 7 5 7 6 4 5 3 4 4 7 7 7 8
1 2 1 1 1 1 1 1 1 2 1 2 3 2 0 2 2 2 1 3 2 2 2 1 2 1 3 2 1 2 3 3 3 3 2 3 2 2 4 6 3 8 7 5 1 4 3 1 3 1 4 4 1 1 0 1 2 2 1 3 2 1 1 1 3 3 2 5 7 9 8 1 1 5 2 3 2 4 5 5 4 3 5 7 6 7 7 8
1 1 1 1 2 1 1 1 1 3 4 2 5 3 2 2 1 2 2 2 1 1 2 3 3 3 2 2 2 4 2 2 3 2 2 2 4 0 4 5 5 5 6 4 2 4 2 3 3 7 7 3 2 0 0 2 5 3 2 2 2 1 3 4 8 2 1 2 6 5 11 4 4 1 0 3 3 3 7 4 3 5 8 9 9 8 6 8
1 0 1 2 2 2 2 1 2 2 2 3 1 2 2 4 1 1 0 1 1 1 1 1 4 3 3 3 1 3 3 2 4 1 3 2 3 3 3 7 5 5 2 2 3 2 1 3 3 5 4 6 2 1 3 5 6 2 1 2 4 1 0 0 7 4 4 4 4 8 10 6 4 2 1 3 9 9 6 3 3 4 6 9 10 9 10 10
1 2 1 3 1 2 2 4 4 4 3 2 2 3 1 1 2 3 1 2 0 1 0 3 2 2 3 2 2 2 4 1 3 2 2 2 2 3 4 6 8 5 3 3 4 1 2 1 3 5 5 2 3 1 1 3 3 1 3 4 2 1 1 2 2 1 3 6 5 6 10 3 3 3 0 5 6 6 2 1 3 5 9 11 11 10 10 10
2 2 1 0 1 1 2 1 3 3 3 3 4 3 3 3 3 3 3 3 3 3 2 2 2 4 1 2 1 2 3 0 3 3 2 3 2 1 5 6 7 3 4 1 1 5 3 3 4 5 4 2 1 0 0 0 2 3 3 3 4 3 3 1 2 2 2 5 4 4 10 5 4 5 6 13 16 15 11 7 8 12 14 14 12 10 10 10
2 0 2 2 3 2 2 2 6 5 3 4 2 3 2 2 3 3 3 3 3 3 1 2 1 3 1 2 2 1 3 3 1 2 1 2 1 1 4 6 7 3 3 1 2 4 0 3 3 2 4 7 6 6 6 7 8 6 3 5 2 4 3 1 1 2 3 1 7 3 7 7 12 13 16 16 16 10 10 10 12 13 12 14 12 11 11 11
1 1 0 2 2 2 2 2 4 6 6 4 3 2 3 3 1 2 4 3 3 2 4 1 1 1 3 2 1 1 2 3 2 1 3 2 1 1 3 4 5 2 2 3 4 2 1 2 3 3 2 4 4 5 6 9 9 6 8 3 0 3 2 2 1 3 5 3 5 10 9 12 15 14 15 17 14 12 11 12 14 14 14 13 12 12 11 11
2 1 0 1 1 6 5 5 3 2 2 1 2 0 4 3 2 2 3 1 3 2 2 4 3 1 3 3 2 1 4 1 3 3 1 2 2 0 3 1 2 2 1 1 7 1 1 2 2 3 2 4 6 9 12 11 12 11 9 2 3 2 3 2 2 5 3 4 10 5 8 11 13 13 15 16 12 11 13 14 14 14 15 14 14 14 13 12
0 1 1 1 0 1 1 3 2 4 3 3 2 1 3 3 1 1 1 2 0 1 1 2 5 4 3 3 3 1 5 1 2 1 2 1 2 3 1 1 1 4 2 1 3 3 1 1 2 3 6 5 8 12 12 10 7 6 7 2 1 2 1 4 3 3 4 4 9 9 10 11 14 14 15 12 12 14 14 15 15 16 16 16 15 15 14 14
2 2 2 2 1 1 2 1 2 6 6 4 3 3 3 4 3 2 2 1 1 2 4 2 3 3 4 5 3 2 4 1 1 1 1 2 2 2 1 1 2 1 4 1 2 0 0 1 1 4 9 10 9 11 7 6 5 6 6 2 1 2 1 2 4 4 5 7 10 9 11 15 14 13 11 13 13 13 12 12 15 17 18 17 16 16 16 15
2 2 1 2 4 3 1 0 1 3 3 0 2 3 2 3 3 2 2 4 1 2 5 4 2 3 3 4 4 2 2 1 0 1 0 2 3 1 2 1 1 2 3 2 1 3 2 2 11 5 3 8 7 8 2 4 7 9 9 5 1 1 1 1 2 4 6 8 8 9 14 16 10 8 12 13 12 12 13 16 17 17 16 17 17 17 16 16
1 2 2 6 4 2 2 0 0 3 3 5 3 0 2 3 4 3 2 3 3 2 3 2 2 1 0 3 5 3 2 2 3 3 3 1 1 1 0 1 2 2 2 1 2 3 2 3 3 3 5 9 6 8 10 11 12 13 8 5 1 1 1 4 1 3 2 6 7 11 12 11 10 12 12 13 13 15 16 17 17 15 15 17 18 18 17 15
0 1 1 1 4 1 1 0 1 0 3 1 2 2 1 4 4 0 3 2 3 4 3 2 2 3 3 4 2 2 3 2 3 3 2 3 3 2 2 2 3 1 1 2 2 0 1 1 3 3 5 9 9 10 11 13 12 9 2 1 2 1 2 4 5 2 3 4 8 9 11 10 13 11 13 14 15 17 17 16 17 17 16 16 18 18 16 14
Wind_Direction
292 305 309 306 302 288 296 353 316 304 289 274 263 248 234 232 230 213 186 183 238 269 333 302 304 312 309 319 323 329 338 290 269 230 236 60 28 77 55 359 221 252 270 282 272 252 248 229 238 216 244 234 225 233 239 196 254 248 233 246 252 255 263 294 331 342 348 324 334 338 353 333 319 333 322 170 233 237 252 253 255 238 237 229 225 196 135 138
305 301 299 295 292 305 317 326 308 301 295 292 286 277 272 263 252 236 210 216 240 264 248 272 295 308 316 319 329 327 316 292 271 266 46 103 113 34 14 338 286 243 271 265 266 265 282 254 221 202 249 244 187 259 112 223 192 227 250 246 257 266 284 308 317 332 334 325 331 324 335 338 309 331 322 301 293 296 297 298 294 293 285 222 215 172 158 153
283 263 274 287 306 307 309 311 295 296 295 287 281 274 272 267 260 241 240 236 242 244 251 267 293 307 321 333 330 318 313 279 265 254 118 234 65 29 2 294 279 204 243 304 317 309 298 304 322 220 245 265 180 239 137 256 196 215 256 254 261 280 294 311 329 321 329 352 332 330 320 319 308 295 306 290 315 305 293 294 287 274 274 346 9 203 162 152
293 270 269 307 314 302 289 300 302 300 290 279 264 264 261 259 257 251 239 235 235 240 250 267 283 319 326 329 336 309 270 284 276 97 95 75 67 40 356 309 260 248 267 267 283 297 288 294 276 265 271 247 273 249 207 242 198 180 206 240 271 292 312 308 314 327 19 351 312 302 307 298 303 315 322 315 300 281 271 260 287 331 332 334 331 335 83 172
313 321 342 332 320 312 307 308 298 298 295 299 298 286 276 265 260 254 240 240 237 242 247 264 284 323 336 330 301 261 284 283 109 80 78 71 71 59 346 299 290 282 277 288 291 254 265 260 246 249 254 277 263 246 223 256 229 272 267 295 299 304 288 291 299 32 18 354 297 294 298 303 327 299 294 307 285 281 282 305 304 299 314 320 321 326 347 16
324 329 343 333 318 309 312 309 308 308 303 305 300 288 269 261 252 244 238 234 238 245 249 270 294 327 339 341 307 256 261 360 144 122 89 75 95 46 293 272 293 306 295 278 271 287 283 241 246 233 235 233 256 261 254 223 252 264 245 255 271 287 288 303 307 16 31 319 303 289 293 314 302 291 286 275 262 266 279 292 298 302 315 325 330 313 350 330
318 324 330 328 316 316 321 314 314 309 307 301 291 273 262 254 244 236 232 228 234 239 255 267 294 330 348 343 250 264 236 281 163 113 103 118 120 111 276 272 264 274 268 274 253 280 248 282 246 267 277 295 268 266 278 307 343 244 269 286 286 288 285 298 315 325 301 293 281 283 303 285 296 286 297 279 267 269 282 291 298 297 285 288 332 326 314 320
314 322 323 322 318 319 314 311 309 304 302 297 282 264 250 243 242 240 234 226 223 225 236 251 275 335 354 270 205 228 230 255 109 135 136 123 201 185 207 252 240 261 271 280 319 289 342 282 274 311 270 255 307 320 339 299 288 278 272 271 266 272 293 312 296 285 284 263 272 280 276 272 274 279 299 274 274 280 285 292 324 360 10 16 332 331 336 318
310 318 320 320 322 318 311 308 304 298 294 284 268 255 241 231 230 227 222 214 210 214 224 236 261 45 118 325 258 278 219 75 107 153 156 165 191 178 218 262 206 260 279 278 267 304 298 308 277 38 321 333 329 301 314 319 274 246 311 320 313 297 295 293 296 283 280 284 261 278 275 272 265 285 271 268 276 289 332 50 23 34 350 355 354 354 357 14
315 321 321 322 319 314 311 308 303 299 288 269 249 236 226 218 212 214 209 205 205 207 219 249 25 65 188 218 251 260 90 210 121 116 102 50 106 247 249 269 292 280 289 149 294 260 276 342 325 334 332 286 284 283 305 256 271 336 315 308 300 294 295 280 273 276 274 274 289 281 283 280 276 303 284 272 47 75 62 14 34 359 12 26 21 31 33 35
323 327 327 327 316 310 310 307 307 302 280 251 229 213 208 204 204 197 201 198 190 211 223 247 96 137 204 218 265 267 143 202 127 118 100 143 185 259 298 293 321 287 287 287 263 324 328 310 355 324 261 288 337 285 242 287 347 288 294 292 279 278 271 270 263 259 255 272 30 303 285 277 262 237 248 271 315 95 57 33 24 36 34 32 34 43 35 32
330 329 329 325 314 308 308 309 306 295 257 216 196 187 186 188 181 188 176 164 199 195 221 230 148 250 269 277 253 336 203 140 161 112 138 139 255 350 326 300 303 293 303 302 307 118 17 347 310 282 289 17 266 328 300 4 320 300 302 291 285 285 280 264 255 255 215 214 79 356 292 273 177 217 237 245 262 39 40 36 44 43 40 35 32 38 38 29
335 331 331 319 315 315 313 300 299 259 202 175 170 169 168 158 161 165 144 153 186 185 224 217 192 232 277 262 160 113 216 106 110 335 170 154 336 211 157 261 255 289 293 293 303 19 3 310 289 281 301 310 315 286 334 286 278 273 262 259 293 291 280 271 148 96 121 155 71 324 353 23 175 213 42 69 86 54 55 53 47 43 42 37 35 35 36 27
340 338 322 324 327 321 303 316 293 141 149 157 149 147 144 152 150 144 167 58 146 178 190 173 247 241 241 268 114 134 74 109 132 219 30 328 273 199 205 186 249 254 247 271 284 13 286 237 283 272 310 259 268 21 306 282 266 260 261 281 275 342 265 122 130 143 150 76 130 123 254 319 28 86 94 64 54 75 67 57 50 44 42 38 35 34 33 32
348 332 327 344 339 303 297 255 122 133 137 138 136 138 146 147 143 142 138 125 107 179 191 90 231 250 221 156 93 111 309 282 220 89 50 341 333 301 193 188 218 249 273 259 268 200 265 277 262 253 256 111 310 283 270 265 247 224 283 260 189 163 274 165 124 154 210 153 164 128 223 231 75 44 39 49 68 71 70 58 53 49 44 41 37 35 34 31
341 334 346 356 349 312 253 177 145 135 137 129 130 138 139 138 142 141 90 74 155 207 213 210 207 247 290 261 95 131 217 215 128 78 69 322 341 292 345 293 319 262 231 222 264 231 243 244 246 350 304 201 229 250 274 297 276 193 181 283 282 230 272 223 181 178 272 119 166 175 232 14 242 67 54 60 66 72 72 63 56 52 45 43 39 36 35 28
341 341 358 4 7 231 189 163 145 142 135 126 126 134 143 150 145 155 153 148 167 219 220 290 242 183 278 52 201 210 134 83 171 145 53 76 293 299 298 277 243 212 211 225 230 225 197 236 128 209 197 259 257 275 306 276 271 51 153 259 274 276 312 293 104 294 146 199 181 207 226 215 267 55 57 59 68 71 72 65 59 53 50 46 41 39 37 33
345 352 350 19 34 203 167 165 156 149 141 164 158 164 148 168 173 139 146 236 176 225 264 263 314 321 220 192 270 58 11 87 27 5 317 317 290 291 269 268 248 262 237 226 199 237 181 232 161 290 310 208 223 221 183 269 17 296 296 296 296 316 305 296 301 148 170 190 262 281 263 276 264 82 64 60 67 73 68 64 62 54 51 44 44 40 38 34
340 349 344 354 50 202 181 169 173 160 151 105 85 74 110 131 194 259 151 164 169 182 207 159 211 294 35 34 77 78 54 131 288 259 159 5 277 283 285 274 284 260 242 243 153 221 156 262 216 275 267 261 219 202 210 249 289 298 309 287 299 301 300 297 289 119 297 192 205 224 260 288 282 98 79 65 65 73 71 68 59 62 50 48 43 43 37 37
332 337 321 313 65 197 190 181 181 176 158 140 153 157 183 185 173 146 176 228 273 26 54 306 318 298 253 74 12 355 145 134 214 168 116 67 300 281 256 246 242 231 268 252 155 163 19 290 260 243 239 264 315 6 339 331 338 328 319 291 271 281 280 277 278 122 171 351 253 251 258 269 349 91 83 79 75 71 72 65 65 57 54 45 46 41 40 38
318 315 300 294 113 244 200 189 196 212 235 309 236 266 340 2 319 107 168 90 27 13 342 346 335 292 344 339 7 5 341 208 254 120 27 42 259 294 208 204 221 234 215 240 335 83 323 266 248 244 274 335 4 355 358 343 334 314 306 287 282 254 277 283 250 144 80 79 286 303 284 269 82 88 80 78 70 67 67 69 67 62 54 52 42 42 38 32
321 299 290 279 270 250 225 201 200 225 265 288 303 265 353 65 360 63 287 164 39 346 279 360 320 238 91 77 73 335 218 276 176 92 105 328 343 274 102 282 279 277 91 162 210 176 209 225 256 28 22 354 360 338 326 301 289 288 259 274 288 275 264 357 88 139 173 132 265 253 261 359 88 84 84 78 84 83 72 73 68 63 60 51 45 39 33 28
315 301 259 255 56 304 221 181 138 34 278 259 267 282 28 315 302 325 258 295 123 267 234 337 222 25 133 106 72 254 288 308 56 81 354 337 303 227 348 307 293 302 260 209 235 303 297 145 61 20 11 339 312 309 245 242 256 259 285 271 251 301 12 306 85 138 248 196 283 267 273 115 107 95 91 87 93 89 89 82 72 64 60 52 49 39 29 24
325 307 248 184 104 116 154 127 146 223 248 254 293 358 49 341 338 311 265 279 139 147 359 27 349 356 25 337 61 315 293 40 320 40 16 347 319 34 290 297 307 304 261 280 289 276 268 34 356 8 312 6 318 312 304 309 305 272 244 261 306 360 350 21 309 318 294 270 253 268 293 221 151 127 102 99 96 95 83 79 75 65 57 53 49 41 31 27
338 344 173 146 152 172 153 156 164 225 218 214 246 71 44 19 352 13 302 218 204 138 213 289 220 63 33 158 220 292 46 35 49 21 3 341 330 301 221 360 290 245 40 20 346 309 279 29 289 3 350 329 322 320 358 27 311 315 79 52 3 350 347 328 312 319 327 305 56 155 310 219 151 133 125 128 107 86 77 75 70 63 53 48 44 36 28 30
321 213 184 170 169 179 124 160 204 174 168 260 63 56 47 19 20 325 292 249 134 63 192 98 225 164 280 128 288 19 70 99 14 8 331 31 309 266 322 227 220 322 27 349 334 279 352 278 35 3 352 311 299 271 27 39 325 306 293 341 4 329 301 293 292 324 289 301 299 129 271 288 140 147 139 128 110 95 80 68 67 62 53 49 45 37 33 31
316 216 180 177 183 157 150 127 338 115 213 137 26 25 32 1 23 345 262 190 221 14 9 166 237 90 299 66 316 207 274 77 118 252 237 40 353 137 287 87 238 112 88 321 340 333 157 72 14 45 346 348 306 45 31 354 356 286 194 296 333 301 288 276 281 254 261 281 280 221 193 241 247 143 133 128 107 93 78 67 57 54 53 48 44 36 34 34
255 185 183 181 199 189 7 300 227 212 31 48 11 14 21 36 323 290 252 212 104 254 16 135 47 23 277 27 308 26 91 184 237 120 287 153 249 210 211 345 357 331 18 9 314 28 333 61 35 18 11 322 35 270 3 20 240 278 263 311 283 272 274 278 273 274 264 302 291 285 225 245 227 116 136 134 96 76 71 62 53 45 44 43 40 37 35 34
144 156 163 182 189 239 311 297 314 353 33 28 19 5 338 50 280 304 276 270 82 348 230 86 326 192 326 151 293 121 153 346 43 103 146 292 255 344 283 39 355 319 294 214 259 171 57 56 64 50 217 13 329 27 43 340 281 218 247 285 266 268 261 249 252 257 272 264 277 278 271 248 292 144 167 131 79 56 56 60 48 45 39 42 34 32 34 31
132 151 146 144 116 207 245 220 50 57 11 13 17 317 292 261 242 228 194 270 90 114 299 297 171 317 307 245 121 31 50 53 121 304 181 10 103 242 134 10 254 305 270 210 245 285 97 77 292 65 15 312 314 297 173 239 244 320 310 278 285 264 245 194 205 193 308 246 260 282 3 29 298 98 6 9 36 13 21 46 51 39 41 36 31 28 22 22
93 116 128 160 183 140 326 217 70 19 22 15 259 258 240 229 250 277 64 181 314 81 214 60 359 320 13 39 21 356 130 13 4 331 125 339 63 26 26 90 291 157 358 188 245 182 103 113 104 8 291 301 210 297 171 267 250 1 312 307 313 297 290 157 189 169 129 283 259 312 33 9 201 119 82 84 87 55 49 51 39 33 31 33 35 25 23 20
91 83 113 179 344 291 292 35 21 358 19 324 258 204 223 265 181 2 77 211 150 349 4 360 79 5 359 17 56 360 346 318 46 23 34 69 47 37 25 50 344 5 10 51 347 107 132 117 350 187 117 98 322 285 236 279 339 264 286 318 1 318 350 331 10 302 246 258 312 127 43 18 3 65 120 91 68 48 55 51 44 33 20 25 26 23 17 9
75 91 74 41 257 61 65 53 261 357 304 263 270 235 267 275 99 350 62 329 270 297 357 176 323 327 316 245 34 334 142 27 308 142 73 120 99 85 57 40 357 35 290 340 319 352 37 306 3 140 2 115 291 28 333 351 329 340 18 347 2 344 348 284 280 270 272 285 337 332 344 305 114 83 77 81 65 65 54 54 47 44 22 14 15 14 11 7
319 275 61 340 65 86 121 85 61 275 270 220 274 236 264 360 74 213 323 50 36 174 226 331 324 271 321 55 346 342 37 212 311 4 317 99 62 41 44 36 20 354 355 302 350 348 300 324 58 356 307 275 24 85 265 236 304 315 10 358 302 272 327 306 307 313 301 292 298 306 317 230 250 82 100 91 80 66 68 49 46 51 35 20 336 5 346 6
347 8 126 160 151 96 110 113 117 68 347 267 245 241 298 61 85 34 73 353 16 329 357 135 295 277 137 95 130 59 81 33 45 38 26 39 47 62 20 7 14 16 302 321 57 243 28 260 163 203 49 281 66 113 180 313 295 187 297 259 302 202 15 246 294 295 294 297 299 288 265 12 91 154 134 117 91 74 46 35 29 6 21 2 337 356 349 360
306 181 206 55 24 55 100 86 92 169 254 253 267 359 54 342 61 355 42 263 285 352 310 308 270 268 50 141 218 45 280 107 350 73 72 64 38 51 56 28 17 21 19 22 302 304 350 266 152 173 74 225 70 320 124 360 67 306 344 37 220 248 248 265 274 261 280 287 269 261 236 99 67 158 130 72 55 49 36 20 15 4 1 0 343 340 350 338
227 162 74 20 74 6 62 122 188 221 246 271 292 84 68 72 348 320 17 353 17 330 288 305 27 350 21 345 62 4 360 15 240 288 106 168 93 25 15 73 58 23 17 51 300 113 118 286 287 214 284 198 74 72 359 331 28 313 352 320 315 244 156 185 269 300 278 272 277 303 292 271 207 229 110 43 52 2 20 13 349 13 351 348 355 323 346 351
59 53 120 77 359 17 104 151 213 230 253 274 58 90 339 97 22 32 357 318 284 225 306 20 120 356 28 342 16 2 338 11 343 348 96 5 67 315 59 335 20 27 338 347 135 334 16 309 337 204 264 121 38 83 62 314 291 90 204 298 57 21 340 309 19 305 313 276 284 267 284 279 44 90 66 1 19 354 356 357 345 355 356 325 326 318 338 355
263 228 129 33 74 318 132 187 228 268 266 159 138 127 44 87 21 26 360 307 231 289 12 39 349 53 7 40 291 76 30 17 319 17 344 26 45 33 57 349 322 343 335 333 287 334 303 236 290 90 318 155 140 151 339 194 242 270 341 2 132 140 265 59 297 285 280 276 281 278 272 298 43 61 7 15 27 334 321 318 324 288 315 326 345 351 342 340
233 223 72 37 60 360 235 231 311 255 315 51 57 56 270 92 60 26 52 353 29 329 47 345 19 6 30 90 84 3 346 325 359 346 39 358 79 16 34 1 341 315 327 319 317 341 303 325 262 331 311 311 338 56 171 58 351 343 40 316 21 360 244 214 247 223 238 276 277 301 294 26 95 79 27 44 352 283 316 305 276 344 356 348 342 340 335 339
139 276 87 323 8 225 223 237 340 47 86 94 59 87 39 77 124 47 31 346 318 73 31 51 357 47 357 343 63 27 341 324 351 47 11 75 28 260 53 0 336 325 324 307 113 9 343 344 285 308 315 338 314 248 143 50 58 59 17 268 90 31 16 343 288 295 20 339 302 325 285 288 134 87 287 51 296 312 305 241 336 348 347 332 339 333 334 336
285 221 44 331 348 299 296 63 33 349 55 40 47 354 106 292 93 60 26 346 310 44 233 44 39 34 20 15 34 354 356 341 351 38 35 64 24 36 352 345 333 301 353 344 336 66 42 275 265 280 287 301 73 31 30 88 93 314 238 335 54 359 9 359 293 299 12 275 311 279 287 288 160 258 255 65 347 340 317 12 5 339 332 331 333 339 338 336
8 54 235 285 311 343 341 71 38 52 67 109 208 60 338 93 65 239 7 344 90 283 34 50 358 358 72 18 344 6 22 354 36 17 60 84 95 30 342 338 331 335 330 16 342 100 299 198 281 290 287 79 48 53 31 59 81 346 42 85 29 66 7 204 245 290 281 291 287 280 259 256 239 178 319 17 326 325 318 34 341 328 333 337 331 334 332 327
33 79 101 180 187 17 281 117 101 89 96 112 85 81 19 58 27 45 47 33 15 5 39 36 121 33 31 11 310 21 346 309 57 33 79 53 92 29 2 8 356 31 18 350 13 320 16 333 40 306 316 300 168 287 138 299 29 2 335 63 66 54 65 311 255 252 242 246 277 266 266 282 177 352 360 349 348 350 352 351 340 336 338 336 334 332 327 317
116 103 78 51 23 359 52 354 112 115 132 138 141 120 135 73 28 20 15 42 3 29 298 61 358 334 25 48 354 108 38 43 351 86 113 58 112 84 18 36 15 71 59 75 245 273 211 274 351 353 330 330 329 323 326 332 330 312 310 102 83 113 123 46 311 333 279 36 34 268 277 308 333 346 349 343 331 332 338 337 331 330 330 333 333 325 316 318
225 117 210 72 355 81 90 221 99 123 128 123 86 72 114 108 126 8 355 84 359 36 38 32 142 297 351 300 193 48 32 50 46 44 18 13 64 101 55 49 50 52 352 277 302 351 270 305 258 269 265 259 284 292 320 315 302 294 292 126 174 111 140 133 240 238 262 334 306 270 288 322 319 336 336 328 322 328 328 326 325 329 329 325 318 315 315 321
307 53 341 135 99 46 60 24 75 116 133 261 85 45 57 67 140 104 313 67 14 5 67 28 15 17 359 7 16 332 40 56 72 75 25 336 324 53 147 167 88 84 248 320 356 353 330 290 355 20 298 312 323 301 290 288 283 283 298 275 162 131 134 125 196 254 351 324 277 289 339 316 306 325 321 314 318 330 326 325 328 325 323 319 315 313 316 311
39 210 183 295 350 82 98 27 8 88 82 73 98 263 113 125 90 101 63 63 192 29 2 112 50 42 48 11 279 347 338 319 83 357 340 43 319 321 166 171 59 316 308 47 22 66 59 261 15 38 287 285 283 280 281 281 269 287 295 265 220 134 119 147 246 300 301 234 268 307 317 307 306 314 305 304 330 326 324 328 327 321 314 314 313 311 313 314
23 88 74 242 90 29 22 151 46 85 68 54 88 33 91 80 78 25 16 275 181 25 352 92 42 40 27 1 0 73 2 17 14 132 138 317 272 297 352 112 138 68 19 72 52 126 68 250 320 323 306 304 294 287 287 286 302 298 284 227 135 183 228 217 228 254 243 262 286 311 309 294 301 298 305 321 325 318 320 323 319 315 314 312 314 314 310 307
152 185 95 36 84 85 33 284 133 102 81 344 106 346 40 96 108 129 53 5 56 43 353 71 48 71 11 40 31 70 10 6 231 276 143 26 313 129 284 76 335 13 85 50 19 335 79 311 20 324 289 296 296 300 290 276 281 286 299 121 18 17 319 290 10 324 332 318 318 311 300 292 287 297 317 316 313 314 319 317 314 311 313 314 310 306 304 302
62 349 120 130 90 8 311 354 270 103 96 32 72 172 104 67 70 66 75 33 32 42 17 42 357 284 145 50 58 51 27 340 319 291 332 318 255 61 162 338 45 305 1 47 42 309 30 291 338 294 309 297 313 319 309 310 307 296 299 131 203 125 15 321 344 309 300 290 307 302 292 290 308 320 315 313 316 319 315 311 310 310 309 306 304 301 298 298
76 123 190 133 86 288 360 100 3 333 64 15 11 38 34 88 99 117 113 60 66 53 30 360 348 301 145 69 50 357 327 306 307 315 308 303 313 350 15 38 2 53 346 29 154 166 74 281 321 327 308 284 307 311 310 309 299 281 207 112 74 32 40 323 298 307 312 333 294 285 276 294 308 323 319 317 319 311 309 311 308 303 304 304 299 295 294 295